Theta_e
318 318 317 317 317 317 317 316 316 316 316 316 317 316 316 316 317 307 302 308 310 319 319 309 303 302 300 297 300 299 290 287 291 293 295 303 301 307 312 310 312 325 329 338 344
315 315 317 317 317 317 317 316 316 316 315 315 315 316 315 315 307 302 312 318 320 321 310 305 297 298 293 296 298 295 289 290 296 298 298 301 305 305 306 307 308 326 335 339 342
311 312 313 314 314 315 315 316 316 316 315 315 314 315 315 313 300 300 321 319 322 321 313 305 300 296 291 294 295 292 289 295 298 301 302 301 300 307 303 303 309 320 330 334 336
310 310 310 311 311 312 313 314 314 315 315 315 314 313 314 308 286 304 322 318 323 323 313 305 297 291 288 291 294 291 295 297 299 301 301 301 304 305 308 306 318 321 333 334 333
309 309 309 309 309 310 310 311 311 312 314 314 314 313 307 298 297 307 318 313 316 314 309 299 294 289 287 290 292 291 293 296 299 300 297 301 301 302 304 311 318 323 330 332 333
309 308 308 308 308 308 308 310 310 310 311 312 314 314 303 291 305 308 307 307 309 311 308 301 294 293 289 288 291 292 294 294 296 297 297 297 297 300 305 310 314 321 323 327 327
311 310 309 309 309 308 308 309 310 309 309 310 312 310 301 297 305 306 306 303 306 309 306 307 298 294 292 289 291 291 287 291 295 294 294 297 296 296 307 309 308 318 321 323 326
311 311 309 309 309 309 308 309 308 308 309 309 311 306 295 305 307 304 304 302 306 306 304 305 304 294 290 291 290 288 286 282 288 293 295 297 289 301 305 307 307 310 318 322 322
310 310 309 309 309 309 309 309 309 310 310 309 303 300 291 305 300 303 303 299 301 303 304 306 301 293 292 287 283 283 280 282 286 292 293 295 289 297 305 306 305 307 311 315 316
309 310 310 310 310 310 309 309 308 306 305 304 302 294 295 293 301 303 304 303 300 300 299 299 295 289 285 285 280 280 281 283 285 289 291 291 292 298 302 304 304 305 307 309 311
309 310 310 310 310 310 307 301 290 288 298 291 293 292 296 299 302 303 306 301 300 297 290 297 288 284 287 287 287 286 285 284 287 291 290 289 293 297 302 304 302 304 306 306 310
309 310 310 310 310 310 305 295 294 298 289 296 296 296 298 299 293 297 305 297 293 289 295 293 290 291 291 290 289 286 284 284 287 290 290 289 291 296 300 302 304 304 304 306 308
310 310 309 310 310 304 297 296 299 300 289 290 295 294 295 298 293 294 299 299 292 289 292 290 293 294 290 288 287 285 284 284 286 292 295 291 288 293 299 302 304 304 305 306 307
309 309 309 309 303 297 295 300 300 299 281 284 290 295 298 298 293 301 301 298 295 288 294 294 297 292 288 287 289 284 289 289 293 289 284 293 280 289 295 298 301 303 304 305 308
309 310 309 308 301 298 300 298 300 295 270 287 293 304 300 293 294 295 302 297 292 290 295 291 292 290 287 287 290 286 292 289 290 288 288 289 286 289 293 294 297 300 303 303 306
309 309 309 304 302 304 304 301 297 280 273 284 294 292 292 293 293 295 296 299 298 293 295 295 297 294 292 293 292 293 289 288 286 285 279 285 286 284 289 293 296 298 300 303 304
308 309 305 305 298 305 301 295 281 274 287 284 287 290 289 288 289 291 291 289 289 286 287 294 293 297 297 290 292 289 286 276 276 276 277 287 285 286 292 296 297 297 299 301 303
307 306 302 304 306 307 301 287 274 282 283 290 289 290 285 287 289 290 289 287 293 291 289 286 284 294 297 292 286 286 283 277 274 275 279 288 282 287 296 300 301 304 304 300 302
306 296 296 300 307 305 293 279 280 283 288 288 289 286 287 290 290 289 288 287 292 295 287 286 286 295 297 294 292 286 283 285 281 281 279 283 287 292 300 302 304 303 299 300 302
300 293 295 304 306 301 289 284 285 290 291 290 284 288 283 286 286 288 289 293 293 296 294 290 285 294 294 294 292 289 290 281 280 276 276 280 284 285 295 298 301 299 299 306 316
296 289 298 305 304 296 285 287 289 293 293 288 287 287 288 287 288 287 290 294 298 296 296 293 290 290 293 288 285 285 284 283 284 281 278 276 281 294 296 298 299 300 309 314 313
294 285 298 300 292 293 287 291 294 293 296 289 291 291 289 290 288 288 291 295 301 300 293 294 290 286 288 291 293 287 286 285 280 282 282 281 281 298 299 301 304 309 312 313 312
293 291 299 299 286 287 292 292 294 294 295 291 287 291 293 289 287 291 293 301 301 299 293 293 286 282 285 288 289 286 288 287 286 287 284 280 281 300 303 302 309 311 310 312 311
289 284 291 293 296 290 289 291 290 297 296 297 296 293 292 290 292 291 295 300 301 300 306 299 288 283 281 285 286 284 288 289 287 281 283 285 288 296 299 301 305 308 307 309 309
289 285 294 287 289 291 292 291 290 291 297 297 294 295 294 289 292 293 296 297 300 303 298 292 289 290 290 290 289 287 287 290 287 287 285 288 291 295 298 302 304 308 307 306 307
290 290 290 291 292 291 292 290 290 292 294 292 292 296 295 291 292 291 293 293 294 296 294 294 288 290 289 294 294 292 292 291 290 292 294 293 293 301 306 306 305 305 306 305 306
296 295 293 290 290 289 289 290 292 294 296 297 295 295 293 293 296 298 298 295 294 293 292 291 289 285 285 291 291 287 290 292 294 296 295 290 294 302 303 304 304 304 306 306 306
Wind_Speed
17 15 14 15 15 15 15 14 14 14 15 16 15 12 14 14 13 2 15 11 11 14 11 3 1 3 4 2 4 4 4 6 8 9 4 3 3 1 2 3 4 8 8 5 12
19 19 19 18 18 18 17 15 15 15 15 14 15 15 10 12 7 14 17 16 17 15 5 6 3 6 4 6 4 5 5 10 6 5 5 3 1 2 5 8 4 7 10 11 12
19 19 20 20 20 18 19 18 18 17 15 14 13 14 11 9 6 8 22 3 15 19 8 3 6 5 6 4 5 5 6 6 6 6 4 2 3 0 2 1 2 5 7 8 13
21 21 21 20 20 20 19 19 19 20 18 14 12 12 13 1 7 5 9 23 16 14 11 5 5 8 7 8 5 4 6 6 7 4 3 3 3 2 4 5 5 7 9 9 12
21 21 21 21 20 20 20 20 19 19 19 19 14 12 4 9 13 9 19 15 4 8 10 6 8 7 8 8 5 6 4 7 5 7 3 4 2 2 1 4 7 8 6 7 9
20 21 22 22 21 21 20 20 18 18 18 18 18 14 6 20 14 16 16 9 7 6 9 5 9 6 6 5 10 7 8 5 7 6 1 4 3 4 3 3 7 8 8 6 7
21 22 23 23 21 22 21 19 18 19 20 19 20 11 10 16 12 4 4 2 3 1 4 7 2 4 7 5 6 5 6 6 12 5 4 7 9 7 6 3 7 6 7 9 9
22 21 22 23 23 23 23 22 22 23 22 21 17 9 16 10 19 17 19 16 11 8 2 7 5 1 4 2 4 8 1 5 5 11 6 8 11 6 8 10 8 8 6 6 9
22 21 23 23 24 23 22 22 26 28 25 19 9 8 14 2 10 16 18 13 14 14 5 10 3 5 3 7 3 4 5 5 2 10 9 11 3 10 9 8 8 8 8 7 6
25 22 23 24 25 24 22 24 26 18 5 6 6 4 6 5 7 5 9 16 5 9 6 8 4 5 3 9 16 6 7 4 6 7 11 6 4 1 3 8 11 9 8 8 8
26 24 24 24 25 23 16 6 7 2 3 6 8 8 3 7 7 2 5 14 10 7 12 14 5 16 18 7 4 7 9 9 6 5 7 9 7 10 9 6 8 8 8 8 9
28 27 26 26 25 20 7 2 5 3 11 15 18 22 16 13 10 9 7 7 10 11 11 9 22 11 9 9 10 4 8 7 3 5 3 5 6 9 9 6 9 12 10 10 5
27 26 26 25 22 7 3 8 4 7 6 7 14 7 9 17 15 12 16 10 9 10 21 17 12 14 11 15 14 3 6 6 7 5 1 3 3 5 5 5 5 6 7 5 9
28 26 23 21 9 2 4 2 2 0 4 6 5 7 9 6 8 20 9 9 10 19 21 13 13 23 18 19 15 11 8 5 8 6 4 2 5 4 6 8 7 9 8 10 10
28 26 24 15 4 2 2 2 4 1 4 4 5 6 6 6 3 8 18 11 14 11 15 12 20 22 22 16 18 6 11 5 3 6 5 1 2 7 1 4 8 11 13 12 15
29 28 23 1 2 4 1 2 1 1 6 2 7 7 4 7 6 3 11 7 6 6 17 13 16 16 11 14 15 13 10 6 6 4 1 5 6 6 3 7 4 6 11 14 14
32 28 10 3 2 4 1 2 3 4 6 3 4 4 13 12 13 18 17 16 9 12 21 17 14 9 14 19 13 7 15 4 2 1 6 6 5 9 6 7 7 9 12 11 9
32 18 1 3 2 2 1 1 5 7 7 11 11 20 11 4 9 13 21 12 15 8 14 17 13 16 20 20 14 11 7 7 8 6 5 6 5 6 4 5 7 11 15 8 9
23 4 2 3 4 2 1 3 5 4 6 7 14 4 6 5 7 9 6 14 11 14 8 10 5 12 19 9 14 11 8 7 8 2 6 4 5 5 5 6 9 10 1 7 5
5 4 4 3 5 2 1 7 6 3 7 5 3 5 7 7 4 2 6 12 8 15 6 2 8 15 13 10 3 13 9 2 4 5 4 1 2 5 8 12 13 9 5 6 12
2 4 4 2 1 2 3 6 11 11 10 4 2 3 5 4 3 3 9 9 14 9 1 6 5 12 11 6 9 9 9 4 7 4 6 4 5 5 6 10 11 3 7 9 13
4 4 3 2 3 3 4 14 12 12 3 2 3 3 2 4 2 5 4 10 16 3 3 1 4 11 11 3 11 6 8 6 7 1 3 5 5 2 6 8 3 9 9 9 14
6 4 4 4 6 9 7 10 8 14 14 2 2 3 1 2 1 3 6 7 22 7 5 6 0 6 5 5 3 6 5 6 7 4 5 6 6 2 6 7 7 13 13 11 12
3 6 5 4 2 10 9 7 14 15 8 8 7 4 2 1 0 3 3 6 13 16 13 5 4 7 7 8 7 8 6 5 8 5 5 5 5 0 4 5 8 10 12 12 9
5 3 2 8 9 15 11 7 15 12 4 12 5 10 3 2 2 4 4 1 22 10 4 4 4 4 3 11 7 5 9 8 6 7 8 6 9 5 1 3 6 11 8 18 12
4 4 3 5 10 13 8 12 14 21 8 12 15 11 9 4 5 2 6 4 3 5 3 3 3 1 9 9 11 7 3 12 7 8 8 8 3 3 1 7 13 13 13 17 16
2 4 3 6 9 10 9 15 17 20 7 11 17 6 6 3 4 3 4 3 3 4 2 4 4 4 4 3 7 7 3 1 4 3 10 6 6 6 8 9 10 16 17 20 15
Wind_Direction
325 320 317 314 311 309 309 311 315 317 318 317 313 298 305 316 308 252 256 227 201 245 272 341 80 143 109 188 156 137 107 198 203 175 221 182 128 269 302 302 38 17 14 60 108
338 336 329 321 317 312 305 301 303 307 310 309 312 314 308 311 297 272 240 229 241 255 176 197 173 137 148 183 190 152 177 200 193 185 210 202 116 18 38 3 22 77 37 56 78
334 330 327 322 321 322 320 315 304 299 299 304 308 313 319 317 309 240 71 109 254 230 217 197 136 150 165 150 195 172 198 173 204 199 240 241 3 316 39 3 321 129 110 73 78
337 332 329 324 322 320 319 316 309 302 293 291 296 305 315 298 262 199 64 8 355 201 163 171 150 154 158 186 197 167 204 165 235 187 203 266 328 46 181 189 123 125 136 110 87
337 333 329 324 322 320 318 314 313 311 306 293 276 279 315 232 245 268 307 353 78 109 178 173 145 134 174 171 153 192 180 193 196 212 201 302 190 114 46 170 117 123 127 121 115
333 330 328 325 321 317 315 310 304 302 303 302 283 258 240 249 261 274 298 313 236 159 181 217 173 171 154 181 173 190 177 192 207 212 227 170 218 170 254 183 142 133 151 144 137
328 327 324 320 320 316 312 304 305 301 297 291 287 260 237 246 255 240 269 193 357 149 172 217 112 190 136 148 199 119 108 216 232 170 218 149 258 203 179 189 157 158 148 158 181
330 326 321 319 315 312 309 306 301 294 287 283 278 284 267 231 255 247 250 255 267 269 338 291 288 41 180 205 74 154 108 161 244 184 217 158 242 173 178 155 165 172 182 177 180
328 323 320 317 313 311 308 303 298 291 283 267 263 241 266 326 238 250 221 217 219 253 238 262 180 179 154 133 89 216 164 159 226 206 185 178 132 180 173 157 182 180 185 200 231
327 322 319 315 312 308 305 307 296 301 301 175 220 161 265 224 231 242 187 195 182 178 157 191 189 159 146 174 194 152 117 140 177 203 202 151 168 95 175 170 192 202 195 205 225
324 322 319 314 310 309 316 331 358 1 281 199 195 234 336 206 265 120 119 153 203 209 176 179 168 203 188 139 101 142 136 137 216 221 138 207 165 220 239 182 182 209 212 207 222
323 323 320 314 309 315 316 265 249 48 291 236 244 235 256 304 280 274 120 148 187 204 153 166 214 179 161 158 197 137 147 179 204 225 128 157 199 226 219 209 189 197 214 217 215
322 322 322 318 321 319 188 222 268 333 269 272 227 237 223 205 241 250 199 163 180 201 198 195 152 156 163 173 177 149 139 157 167 121 66 111 291 201 236 224 218 216 207 213 205
323 323 325 329 314 170 260 235 193 159 308 271 198 211 194 217 238 210 221 174 201 200 194 225 163 168 170 183 175 181 195 148 130 103 172 74 259 247 210 214 224 229 198 208 211
325 324 325 326 282 255 310 75 251 88 331 168 150 105 171 210 1 183 187 199 207 169 191 185 168 179 178 178 172 183 167 177 109 96 112 333 82 276 133 233 229 231 232 215 208
328 326 328 4 203 237 303 358 330 354 262 260 130 171 203 222 234 356 168 208 173 245 209 192 169 179 175 155 169 152 125 51 48 82 307 213 137 290 215 215 248 224 223 221 205
327 325 321 186 246 110 73 96 281 220 338 234 273 315 291 263 259 212 177 173 177 181 184 191 176 141 152 146 187 133 141 100 41 211 211 181 113 238 252 263 234 268 260 228 209
327 324 271 234 203 139 205 80 229 228 237 295 308 306 277 236 126 170 155 158 222 242 159 165 165 157 172 160 177 181 141 145 160 163 174 136 207 238 206 294 270 267 264 214 211
327 332 346 271 187 144 77 242 263 302 326 309 307 310 351 58 98 118 194 166 192 217 162 153 134 168 166 168 145 194 193 165 106 53 91 201 280 317 322 318 308 307 282 175 178
334 332 301 311 120 117 229 260 262 279 300 260 276 10 12 12 105 137 168 183 192 201 150 191 98 166 165 140 131 180 156 108 5 125 133 301 249 231 338 315 316 329 57 99 107
11 19 267 1 68 252 300 273 290 292 296 276 333 346 355 50 58 79 206 139 211 211 24 138 102 170 155 177 163 138 170 69 111 95 140 130 263 218 268 285 300 111 76 106 103
341 18 304 45 4 318 318 306 296 311 329 351 302 278 312 338 47 66 252 161 214 176 116 4 101 158 169 224 147 146 162 122 114 165 69 124 281 289 292 293 109 108 88 94 109
338 292 312 43 8 352 313 307 325 318 329 96 305 303 250 5 248 123 216 170 181 200 218 147 55 102 92 23 61 132 128 113 107 90 168 120 258 332 348 31 74 108 103 112 111
16 1 326 17 330 336 325 324 334 325 314 338 24 166 287 235 154 275 23 50 168 210 239 86 115 142 184 145 122 118 128 148 121 110 157 211 141 358 9 59 76 86 103 95 94
17 338 37 321 339 333 331 304 335 344 325 343 347 19 10 49 125 6 358 83 172 210 37 66 93 90 26 127 107 128 154 154 150 160 148 197 153 183 123 102 93 93 100 103 87
2 338 333 292 306 326 337 349 333 345 325 334 350 3 19 64 24 357 312 35 174 16 76 356 126 42 46 77 117 81 71 178 184 123 80 124 115 99 311 114 109 106 118 104 102
319 285 291 304 332 338 337 339 332 334 307 322 338 328 30 2 310 298 268 273 123 80 109 59 113 50 78 22 98 50 346 209 125 115 138 175 141 151 80 92 123 125 126 113 123